Year,Month,Day,Hour,Minute,Value (Times are PST for temperature in C)
2019,03,29,00,00,9.20
2019,03,29,00,01,9.20
2019,03,29,00,02,9.20
2019,03,29,00,03,9.10
2019,03,29,00,04,9.10
2019,03,29,00,05,9.10
2019,03,29,00,06,9.10
2019,03,29,00,07,9.10
2019,03,29,00,08,9.00
2019,03,29,00,09,9.00
2019,03,29,00,10,9.00
2019,03,29,00,11,9.00
2019,03,29,00,12,9.00
2019,03,29,00,13,8.90
2019,03,29,00,14,8.90
2019,03,29,00,15,8.90
2019,03,29,00,16,8.90
2019,03,29,00,17,8.80
2019,03,29,00,18,8.80
2019,03,29,00,19,8.80
2019,03,29,00,20,8.80
2019,03,29,00,21,8.70
2019,03,29,00,22,8.70
2019,03,29,00,23,8.70
2019,03,29,00,24,8.70
2019,03,29,00,25,8.70
2019,03,29,00,26,8.60
2019,03,29,00,27,8.60
2019,03,29,00,28,8.60
2019,03,29,00,29,8.60
2019,03,29,00,30,8.60
2019,03,29,00,31,8.50
2019,03,29,00,32,8.50
2019,03,29,00,33,8.50
2019,03,29,00,34,8.40
2019,03,29,00,35,8.40
2019,03,29,00,36,8.40
2019,03,29,00,37,8.40
2019,03,29,00,38,8.30
2019,03,29,00,39,8.30
2019,03,29,00,40,8.30
2019,03,29,00,41,8.30
2019,03,29,00,42,8.30
2019,03,29,00,43,8.30
2019,03,29,00,44,8.20
2019,03,29,00,45,8.20
2019,03,29,00,46,8.20
2019,03,29,00,47,8.20
2019,03,29,00,48,8.20
2019,03,29,00,49,8.20
2019,03,29,00,50,8.10
2019,03,29,00,51,8.10
2019,03,29,00,52,8.10
2019,03,29,00,53,8.10
2019,03,29,00,54,8.10
2019,03,29,00,55,8.10
2019,03,29,00,56,8.10
2019,03,29,00,57,8.00
2019,03,29,00,58,8.00
2019,03,29,00,59,8.00
2019,03,29,01,00,8.00
2019,03,29,01,01,7.90
2019,03,29,01,02,7.90
2019,03,29,01,03,7.90
2019,03,29,01,04,7.90
2019,03,29,01,05,7.90
2019,03,29,01,06,7.90
2019,03,29,01,07,7.90
2019,03,29,01,08,7.90
2019,03,29,01,09,7.90
2019,03,29,01,10,7.90
2019,03,29,01,11,7.90
2019,03,29,01,12,7.90
2019,03,29,01,13,7.90
2019,03,29,01,14,7.90
2019,03,29,01,15,7.90
2019,03,29,01,16,7.80
2019,03,29,01,17,7.80
2019,03,29,01,18,7.80
2019,03,29,01,19,7.80
2019,03,29,01,20,7.80
2019,03,29,01,21,7.80
2019,03,29,01,22,7.80
2019,03,29,01,23,7.80
2019,03,29,01,24,7.80
2019,03,29,01,25,7.90
2019,03,29,01,26,7.90
2019,03,29,01,27,7.90
2019,03,29,01,28,7.90
2019,03,29,01,29,7.90
2019,03,29,01,30,7.90
2019,03,29,01,31,8.00
2019,03,29,01,32,8.00
2019,03,29,01,33,8.00
2019,03,29,01,34,8.00
2019,03,29,01,35,8.00
2019,03,29,01,36,8.00
2019,03,29,01,37,8.10
2019,03,29,01,38,8.10
2019,03,29,01,39,8.10
2019,03,29,01,40,8.10
2019,03,29,01,41,8.10
2019,03,29,01,42,8.10
2019,03,29,01,43,8.10
2019,03,29,01,44,8.10
2019,03,29,01,45,8.10
2019,03,29,01,46,8.10
2019,03,29,01,47,8.10
2019,03,29,01,48,8.10
2019,03,29,01,49,8.10
2019,03,29,01,50,8.10
2019,03,29,01,51,8.10
2019,03,29,01,52,8.10
2019,03,29,01,53,8.10
2019,03,29,01,54,8.10
2019,03,29,01,55,8.10
2019,03,29,01,56,8.10
2019,03,29,01,57,8.10
2019,03,29,01,58,8.10
2019,03,29,01,59,8.10
2019,03,29,02,00,8.10
2019,03,29,02,01,8.10
2019,03,29,02,02,8.10
2019,03,29,02,03,8.10
2019,03,29,02,04,8.10
2019,03,29,02,05,8.00
2019,03,29,02,06,8.00
2019,03,29,02,07,8.00
2019,03,29,02,08,8.00
2019,03,29,02,09,8.00
2019,03,29,02,10,8.00
2019,03,29,02,11,7.90
2019,03,29,02,12,7.90
2019,03,29,02,13,7.90
2019,03,29,02,14,7.90
2019,03,29,02,15,7.90
2019,03,29,02,16,7.80
2019,03,29,02,17,7.80
2019,03,29,02,18,7.80
2019,03,29,02,19,7.80
2019,03,29,02,20,7.80
2019,03,29,02,21,7.80
2019,03,29,02,22,7.80
2019,03,29,02,23,7.70
2019,03,29,02,24,7.70
2019,03,29,02,25,7.70
2019,03,29,02,26,7.70
2019,03,29,02,27,7.60
2019,03,29,02,28,7.60
2019,03,29,02,29,7.60
2019,03,29,02,30,7.60
2019,03,29,02,31,7.60
2019,03,29,02,32,7.50
2019,03,29,02,33,7.50
2019,03,29,02,34,7.50
2019,03,29,02,35,7.50
2019,03,29,02,36,7.50
2019,03,29,02,37,7.50
2019,03,29,02,38,7.50
2019,03,29,02,39,7.50
2019,03,29,02,40,7.60
2019,03,29,02,41,7.60
2019,03,29,02,42,7.60
2019,03,29,02,43,7.60
2019,03,29,02,44,7.60
2019,03,29,02,45,7.60
2019,03,29,02,46,7.60
2019,03,29,02,47,7.60
2019,03,29,02,48,7.60
2019,03,29,02,49,7.60
2019,03,29,02,50,7.60
2019,03,29,02,51,7.60
2019,03,29,02,52,7.60
2019,03,29,02,53,7.60
2019,03,29,02,54,7.60
2019,03,29,02,55,7.60
2019,03,29,02,56,7.60
2019,03,29,02,57,7.70
2019,03,29,02,58,7.60
2019,03,29,02,59,7.70
2019,03,29,03,00,7.70
2019,03,29,03,01,7.70
2019,03,29,03,02,7.70
2019,03,29,03,03,7.70
2019,03,29,03,04,7.70
2019,03,29,03,05,7.60
2019,03,29,03,06,7.60
2019,03,29,03,07,7.60
2019,03,29,03,08,7.60
2019,03,29,03,09,7.60
2019,03,29,03,10,7.60
2019,03,29,03,11,7.60
2019,03,29,03,12,7.60
2019,03,29,03,13,7.60
2019,03,29,03,14,7.60
2019,03,29,03,15,7.60
2019,03,29,03,16,7.60
2019,03,29,03,17,7.60
2019,03,29,03,18,7.60
2019,03,29,03,19,7.60
2019,03,29,03,20,7.60
2019,03,29,03,21,7.60
2019,03,29,03,22,7.60
2019,03,29,03,23,7.70
2019,03,29,03,24,7.70
2019,03,29,03,25,7.70
2019,03,29,03,26,7.70
2019,03,29,03,27,7.70
2019,03,29,03,28,7.70
2019,03,29,03,29,7.70
2019,03,29,03,30,7.70
2019,03,29,03,31,7.70
2019,03,29,03,32,7.70
2019,03,29,03,33,7.70
2019,03,29,03,34,7.70
2019,03,29,03,35,7.70
2019,03,29,03,36,7.70
2019,03,29,03,37,7.80
2019,03,29,03,38,7.80
2019,03,29,03,39,7.80
2019,03,29,03,40,7.80
2019,03,29,03,41,7.80
2019,03,29,03,42,7.80
2019,03,29,03,43,7.80
2019,03,29,03,44,7.80
2019,03,29,03,45,7.80
2019,03,29,03,46,7.80
2019,03,29,03,47,7.80
2019,03,29,03,48,7.80
2019,03,29,03,49,7.80
2019,03,29,03,50,7.80
2019,03,29,03,51,7.80
2019,03,29,03,52,7.80
2019,03,29,03,53,7.80
2019,03,29,03,54,7.80
2019,03,29,03,55,7.80
2019,03,29,03,56,7.80
2019,03,29,03,57,7.80
2019,03,29,03,58,7.80
2019,03,29,03,59,7.80
2019,03,29,04,00,7.80
2019,03,29,04,01,7.80
2019,03,29,04,02,7.80
2019,03,29,04,03,7.70
2019,03,29,04,04,7.70
2019,03,29,04,05,7.70
2019,03,29,04,06,7.70
2019,03,29,04,07,7.70
2019,03,29,04,08,7.70
2019,03,29,04,09,7.70
2019,03,29,04,10,7.70
2019,03,29,04,11,7.70
2019,03,29,04,12,7.70
2019,03,29,04,13,7.60
2019,03,29,04,14,7.60
2019,03,29,04,15,7.60
2019,03,29,04,16,7.60
2019,03,29,04,17,7.60
2019,03,29,04,18,7.50
2019,03,29,04,19,7.50
2019,03,29,04,20,7.50
2019,03,29,04,21,7.50
2019,03,29,04,22,7.50
2019,03,29,04,23,7.40
2019,03,29,04,24,7.40
2019,03,29,04,25,7.40
2019,03,29,04,26,7.40
2019,03,29,04,27,7.40
2019,03,29,04,28,7.40
2019,03,29,04,29,7.40
2019,03,29,04,30,7.30
2019,03,29,04,31,7.30
2019,03,29,04,32,7.30
2019,03,29,04,33,7.30
2019,03,29,04,34,7.30
2019,03,29,04,35,7.30
2019,03,29,04,36,7.30
2019,03,29,04,37,7.20
2019,03,29,04,38,7.20
2019,03,29,04,39,7.20
2019,03,29,04,40,7.20
2019,03,29,04,41,7.20
2019,03,29,04,42,7.20
2019,03,29,04,43,7.10
2019,03,29,04,44,7.10
2019,03,29,04,45,7.10
2019,03,29,04,46,7.10
2019,03,29,04,47,7.10
2019,03,29,04,48,7.00
2019,03,29,04,49,7.00
2019,03,29,04,50,7.00
2019,03,29,04,51,7.00
2019,03,29,04,52,6.90
2019,03,29,04,53,6.90
2019,03,29,04,54,6.90
2019,03,29,04,55,6.90
2019,03,29,04,56,6.90
2019,03,29,04,57,6.90
2019,03,29,04,58,6.80
2019,03,29,04,59,6.80
2019,03,29,05,00,6.80
2019,03,29,05,01,6.80
2019,03,29,05,02,6.80
2019,03,29,05,03,6.80
2019,03,29,05,04,6.70
2019,03,29,05,05,6.70
2019,03,29,05,06,6.70
2019,03,29,05,07,6.70
2019,03,29,05,08,6.70
2019,03,29,05,09,6.70
2019,03,29,05,10,6.70
2019,03,29,05,11,6.60
2019,03,29,05,12,6.60
2019,03,29,05,13,6.60
2019,03,29,05,14,6.60
2019,03,29,05,15,6.60
2019,03,29,05,16,6.60
2019,03,29,05,17,6.60
2019,03,29,05,18,6.50
2019,03,29,05,19,6.50
2019,03,29,05,20,6.50
2019,03,29,05,21,6.50
2019,03,29,05,22,6.50
2019,03,29,05,23,6.40
2019,03,29,05,24,6.40
2019,03,29,05,25,6.40
2019,03,29,05,26,6.40
2019,03,29,05,27,6.40
2019,03,29,05,28,6.40
2019,03,29,05,29,6.30
2019,03,29,05,30,6.30
2019,03,29,05,31,6.30
2019,03,29,05,32,6.30
2019,03,29,05,33,6.30
2019,03,29,05,34,6.30
2019,03,29,05,35,6.30
2019,03,29,05,36,6.30
2019,03,29,05,37,6.30
2019,03,29,05,38,6.30
2019,03,29,05,39,6.20
2019,03,29,05,40,6.20
2019,03,29,05,41,6.20
2019,03,29,05,42,6.20
2019,03,29,05,43,6.20
2019,03,29,05,44,6.20
2019,03,29,05,45,6.20
2019,03,29,05,46,6.20
2019,03,29,05,47,6.20
2019,03,29,05,48,6.10
2019,03,29,05,49,6.10
2019,03,29,05,50,6.10
2019,03,29,05,51,6.10
2019,03,29,05,52,6.10
2019,03,29,05,53,6.10
2019,03,29,05,54,6.10
2019,03,29,05,55,6.10
2019,03,29,05,56,6.10
2019,03,29,05,57,6.10
2019,03,29,05,58,6.00
2019,03,29,05,59,6.00
2019,03,29,06,00,6.00
2019,03,29,06,01,6.00
2019,03,29,06,02,6.00
2019,03,29,06,03,5.90
2019,03,29,06,04,5.90
2019,03,29,06,05,5.90
2019,03,29,06,06,5.90
2019,03,29,06,07,5.90
2019,03,29,06,08,5.90
2019,03,29,06,09,5.90
2019,03,29,06,10,5.90
2019,03,29,06,11,5.90
2019,03,29,06,12,5.90
2019,03,29,06,13,5.90
2019,03,29,06,14,5.90
2019,03,29,06,15,5.90
2019,03,29,06,16,5.90
2019,03,29,06,17,5.90
2019,03,29,06,18,5.90
2019,03,29,06,19,5.90
2019,03,29,06,20,5.90
2019,03,29,06,21,5.90
2019,03,29,06,22,5.90
2019,03,29,06,23,5.90
2019,03,29,06,24,5.90
2019,03,29,06,25,5.90
2019,03,29,06,26,5.80
2019,03,29,06,27,5.80
2019,03,29,06,28,5.80
2019,03,29,06,29,5.80
2019,03,29,06,30,5.80
2019,03,29,06,31,5.80
2019,03,29,06,32,5.80
2019,03,29,06,33,5.80
2019,03,29,06,34,5.80
2019,03,29,06,35,5.80
2019,03,29,06,36,5.80
2019,03,29,06,37,5.80
2019,03,29,06,38,5.80
2019,03,29,06,39,5.80
2019,03,29,06,40,5.80
2019,03,29,06,41,5.80
2019,03,29,06,42,5.80
2019,03,29,06,43,5.80
2019,03,29,06,44,5.70
2019,03,29,06,45,5.70
2019,03,29,06,46,5.70
2019,03,29,06,47,5.70
2019,03,29,06,48,5.70
2019,03,29,06,49,5.70
2019,03,29,06,50,5.70
2019,03,29,06,51,5.70
2019,03,29,06,52,5.70
2019,03,29,06,53,5.60
2019,03,29,06,54,5.60
2019,03,29,06,55,5.60
2019,03,29,06,56,5.60
2019,03,29,06,57,5.60
2019,03,29,06,58,5.60
2019,03,29,06,59,5.60
2019,03,29,07,00,5.60
2019,03,29,07,01,5.50
2019,03,29,07,02,5.50
2019,03,29,07,03,5.50
2019,03,29,07,04,5.50
2019,03,29,07,05,5.50
2019,03,29,07,06,5.50
2019,03,29,07,07,5.50
2019,03,29,07,08,5.40
2019,03,29,07,09,5.40
2019,03,29,07,10,5.40
2019,03,29,07,11,5.40
2019,03,29,07,12,5.40
2019,03,29,07,13,5.40
2019,03,29,07,14,5.40
2019,03,29,07,15,5.40
2019,03,29,07,16,5.40
2019,03,29,07,17,5.40
2019,03,29,07,18,5.40
2019,03,29,07,19,5.40
2019,03,29,07,20,5.40
2019,03,29,07,21,5.40
2019,03,29,07,22,5.40
2019,03,29,07,23,5.50
2019,03,29,07,24,5.50
2019,03,29,07,25,5.50
2019,03,29,07,26,5.50
2019,03,29,07,27,5.50
2019,03,29,07,28,5.50
2019,03,29,07,29,5.50
2019,03,29,07,30,5.60
2019,03,29,07,31,5.60
2019,03,29,07,32,5.60
2019,03,29,07,33,5.60
2019,03,29,07,34,5.60
2019,03,29,07,35,5.60
2019,03,29,07,36,5.60
2019,03,29,07,37,5.60
2019,03,29,07,38,5.60
2019,03,29,07,39,5.60
2019,03,29,07,40,5.60
2019,03,29,07,41,5.60
2019,03,29,07,42,5.60
2019,03,29,07,43,5.60
2019,03,29,07,44,5.70
2019,03,29,07,45,5.70
2019,03,29,07,46,5.70
2019,03,29,07,47,5.70
2019,03,29,07,48,5.70
2019,03,29,07,49,5.70
2019,03,29,07,50,5.70
2019,03,29,07,51,5.70
2019,03,29,07,52,5.70
2019,03,29,07,53,5.80
2019,03,29,07,54,5.80
2019,03,29,07,55,5.80
2019,03,29,07,56,5.90
2019,03,29,07,57,5.90
2019,03,29,07,58,5.90
2019,03,29,07,59,6.00
2019,03,29,08,00,6.00
2019,03,29,08,01,6.10
2019,03,29,08,02,6.10
2019,03,29,08,03,6.20
2019,03,29,08,04,6.30
2019,03,29,08,05,6.30
2019,03,29,08,06,6.40
2019,03,29,08,07,6.40
2019,03,29,08,08,6.50
2019,03,29,08,09,6.60
2019,03,29,08,10,6.60
2019,03,29,08,11,6.70
2019,03,29,08,12,6.70
2019,03,29,08,13,6.80
2019,03,29,08,14,6.90
2019,03,29,08,15,6.90
2019,03,29,08,16,7.00
2019,03,29,08,17,7.10
2019,03,29,08,18,7.20
2019,03,29,08,19,7.30
2019,03,29,08,20,7.30
2019,03,29,08,21,7.40
2019,03,29,08,22,7.40
2019,03,29,08,23,7.50
2019,03,29,08,24,7.50
2019,03,29,08,25,7.60
2019,03,29,08,26,7.60
2019,03,29,08,27,7.70
2019,03,29,08,28,7.70
2019,03,29,08,29,7.80
2019,03,29,08,30,7.90
2019,03,29,08,31,8.00
2019,03,29,08,32,8.10
2019,03,29,08,33,8.10
2019,03,29,08,34,8.30
2019,03,29,08,35,8.40
2019,03,29,08,36,8.40
2019,03,29,08,37,8.50
2019,03,29,08,38,8.60
2019,03,29,08,39,8.70
2019,03,29,08,40,8.70
2019,03,29,08,41,8.80
2019,03,29,08,42,8.80
2019,03,29,08,43,8.90
2019,03,29,08,44,8.90
2019,03,29,08,45,9.00
2019,03,29,08,46,9.00
2019,03,29,08,47,9.10
2019,03,29,08,48,9.10
2019,03,29,08,49,9.20
2019,03,29,08,50,9.20
2019,03,29,08,51,9.20
2019,03,29,08,52,9.30
2019,03,29,08,53,9.30
2019,03,29,08,54,9.40
2019,03,29,08,55,9.50
2019,03,29,08,56,9.60
2019,03,29,08,57,9.70
2019,03,29,08,58,9.80
2019,03,29,08,59,9.80
2019,03,29,09,00,9.90
2019,03,29,09,01,9.90
2019,03,29,09,02,10.00
2019,03,29,09,03,10.00
2019,03,29,09,04,10.10
2019,03,29,09,05,10.10
2019,03,29,09,06,10.20
2019,03,29,09,07,10.30
2019,03,29,09,08,10.30
2019,03,29,09,09,10.40
2019,03,29,09,10,10.40
2019,03,29,09,11,10.50
2019,03,29,09,12,10.50
2019,03,29,09,13,10.60
2019,03,29,09,14,10.60
2019,03,29,09,15,10.60
2019,03,29,09,16,10.70
2019,03,29,09,17,10.70
2019,03,29,09,18,10.70
2019,03,29,09,19,10.70
2019,03,29,09,20,10.80
2019,03,29,09,21,10.80
2019,03,29,09,22,10.80
2019,03,29,09,23,10.80
2019,03,29,09,24,10.90
2019,03,29,09,25,10.90
2019,03,29,09,26,10.90
2019,03,29,09,27,11.00
2019,03,29,09,28,11.00
2019,03,29,09,29,11.00
2019,03,29,09,30,11.10
2019,03,29,09,31,11.10
2019,03,29,09,32,11.20
2019,03,29,09,33,11.20
2019,03,29,09,34,11.30
2019,03,29,09,35,11.30
2019,03,29,09,36,11.40
2019,03,29,09,37,11.40
2019,03,29,09,38,11.40
2019,03,29,09,39,11.50
2019,03,29,09,40,11.60
2019,03,29,09,41,11.60
2019,03,29,09,42,11.70
2019,03,29,09,43,11.70
2019,03,29,09,44,11.70
2019,03,29,09,45,11.80
2019,03,29,09,46,11.80
2019,03,29,09,47,11.90
2019,03,29,09,48,11.90
2019,03,29,09,49,12.00
2019,03,29,09,50,12.00
2019,03,29,09,51,12.10
2019,03,29,09,52,12.10
2019,03,29,09,53,12.10
2019,03,29,09,54,12.20
2019,03,29,09,55,12.20
2019,03,29,09,56,12.20
2019,03,29,09,57,12.30
2019,03,29,09,58,12.30
2019,03,29,09,59,12.30
2019,03,29,10,00,12.40
2019,03,29,10,01,12.40
2019,03,29,10,02,12.50
2019,03,29,10,03,12.50
2019,03,29,10,04,12.60
2019,03,29,10,05,12.60
2019,03,29,10,06,12.60
2019,03,29,10,07,12.60
2019,03,29,10,08,12.70
2019,03,29,10,09,12.70
2019,03,29,10,10,12.70
2019,03,29,10,11,12.70
2019,03,29,10,12,12.70
2019,03,29,10,13,12.80
2019,03,29,10,14,12.80
2019,03,29,10,15,12.80
2019,03,29,10,16,12.90
2019,03,29,10,17,12.90
2019,03,29,10,18,12.90
2019,03,29,10,19,13.00
2019,03,29,10,20,13.00
2019,03,29,10,21,13.10
2019,03,29,10,22,13.10
2019,03,29,10,23,13.10
2019,03,29,10,24,13.20
2019,03,29,10,25,13.20
2019,03,29,10,26,13.20
2019,03,29,10,27,13.30
2019,03,29,10,28,13.30
2019,03,29,10,29,13.30
2019,03,29,10,30,13.30
2019,03,29,10,31,13.30
2019,03,29,10,32,13.30
2019,03,29,10,33,13.30
2019,03,29,10,34,13.30
2019,03,29,10,35,13.30
2019,03,29,10,36,13.30
2019,03,29,10,37,13.30
2019,03,29,10,38,13.30
2019,03,29,10,39,13.40
2019,03,29,10,40,13.40
2019,03,29,10,41,13.50
2019,03,29,10,42,13.50
2019,03,29,10,43,13.60
2019,03,29,10,44,13.60
2019,03,29,10,45,13.50
2019,03,29,10,46,13.60
2019,03,29,10,47,13.60
2019,03,29,10,48,13.70
2019,03,29,10,49,13.70
2019,03,29,10,50,13.70
2019,03,29,10,51,13.80
2019,03,29,10,52,13.80
2019,03,29,10,53,13.80
2019,03,29,10,54,13.80
2019,03,29,10,55,13.90
2019,03,29,10,56,13.90
2019,03,29,10,57,14.00
2019,03,29,10,58,14.00
2019,03,29,10,59,14.00
2019,03,29,11,00,14.00
2019,03,29,11,01,14.00
2019,03,29,11,02,14.00
2019,03,29,11,03,14.10
2019,03,29,11,04,14.10
2019,03,29,11,05,14.10
2019,03,29,11,06,14.20
2019,03,29,11,07,14.20
2019,03,29,11,08,14.20
2019,03,29,11,09,14.30
2019,03,29,11,10,14.30
2019,03,29,11,11,14.40
2019,03,29,11,12,14.40
2019,03,29,11,13,14.40
2019,03,29,11,14,14.50
2019,03,29,11,15,14.50
2019,03,29,11,16,14.60
2019,03,29,11,17,14.70
2019,03,29,11,18,14.70
2019,03,29,11,19,14.80
2019,03,29,11,20,14.80
2019,03,29,11,21,14.90
2019,03,29,11,22,15.00
2019,03,29,11,23,15.10
2019,03,29,11,24,15.20
2019,03,29,11,25,15.20
2019,03,29,11,26,15.20
2019,03,29,11,27,15.20
2019,03,29,11,28,15.20
2019,03,29,11,29,15.20
2019,03,29,11,30,15.20
2019,03,29,11,31,15.20
2019,03,29,11,32,15.20
2019,03,29,11,33,15.10
2019,03,29,11,34,15.10
2019,03,29,11,35,15.10
2019,03,29,11,36,15.20
2019,03,29,11,37,15.20
2019,03,29,11,38,15.30
2019,03,29,11,39,15.30
2019,03,29,11,40,15.30
2019,03,29,11,41,15.30
2019,03,29,11,42,15.30
2019,03,29,11,43,15.20
2019,03,29,11,44,15.20
2019,03,29,11,45,15.30
2019,03,29,11,46,15.30
2019,03,29,11,47,15.30
2019,03,29,11,48,15.30
2019,03,29,11,49,15.30
2019,03,29,11,50,15.30
2019,03,29,11,51,15.30
2019,03,29,11,52,15.30
2019,03,29,11,53,15.40
2019,03,29,11,54,15.40
2019,03,29,11,55,15.40
2019,03,29,11,56,15.40
2019,03,29,11,57,15.50
2019,03,29,11,58,15.50
2019,03,29,11,59,15.50
2019,03,29,12,00,15.40
2019,03,29,12,01,15.50
2019,03,29,12,02,15.50
2019,03,29,12,03,15.50
2019,03,29,12,04,15.60
2019,03,29,12,05,15.60
2019,03,29,12,06,15.60
2019,03,29,12,07,15.70
2019,03,29,12,08,15.70
2019,03,29,12,09,15.70
2019,03,29,12,10,15.80
2019,03,29,12,11,15.80
2019,03,29,12,12,15.80
2019,03,29,12,13,15.90
2019,03,29,12,14,15.90
2019,03,29,12,15,15.90
2019,03,29,12,16,15.90
2019,03,29,12,17,15.90
2019,03,29,12,18,15.90
2019,03,29,12,19,15.80
2019,03,29,12,20,15.80
2019,03,29,12,21,15.70
2019,03,29,12,22,15.80
2019,03,29,12,23,15.70
2019,03,29,12,24,15.80
2019,03,29,12,25,15.80
2019,03,29,12,26,15.80
2019,03,29,12,27,15.70
2019,03,29,12,28,15.70
2019,03,29,12,29,15.70
2019,03,29,12,30,15.70
2019,03,29,12,31,15.60
2019,03,29,12,32,15.60
2019,03,29,12,33,15.60
2019,03,29,12,34,15.60
2019,03,29,12,35,15.60
2019,03,29,12,36,15.70
2019,03,29,12,37,15.70
2019,03,29,12,38,15.80
2019,03,29,12,39,15.80
2019,03,29,12,40,15.80
2019,03,29,12,41,15.90
2019,03,29,12,42,16.00
2019,03,29,12,43,16.10
2019,03,29,12,44,16.10
2019,03,29,12,45,16.00
2019,03,29,12,46,16.00
2019,03,29,12,47,15.90
2019,03,29,12,48,15.90
2019,03,29,12,49,15.90
2019,03,29,12,50,15.90
2019,03,29,12,51,16.00
2019,03,29,12,52,16.00
2019,03,29,12,53,16.00
2019,03,29,12,54,16.10
2019,03,29,12,55,16.10
2019,03,29,12,56,16.10
2019,03,29,12,57,16.10
2019,03,29,12,58,16.10
2019,03,29,12,59,16.10
2019,03,29,13,00,16.10
2019,03,29,13,01,16.10
2019,03,29,13,02,16.10
2019,03,29,13,03,16.10
2019,03,29,13,04,16.10
2019,03,29,13,05,16.00
2019,03,29,13,06,16.00
2019,03,29,13,07,16.00
2019,03,29,13,08,16.00
2019,03,29,13,09,16.10
2019,03,29,13,10,16.10
2019,03,29,13,11,16.10
2019,03,29,13,12,16.10
2019,03,29,13,13,16.00
2019,03,29,13,14,16.00
2019,03,29,13,15,15.90
2019,03,29,13,16,15.90
2019,03,29,13,17,16.00
2019,03,29,13,18,16.00
2019,03,29,13,19,16.10
2019,03,29,13,20,16.20
2019,03,29,13,21,16.20
2019,03,29,13,22,16.20
2019,03,29,13,23,16.30
2019,03,29,13,24,16.30
2019,03,29,13,25,16.20
2019,03,29,13,26,16.20
2019,03,29,13,27,16.10
2019,03,29,13,28,16.10
2019,03,29,13,29,16.10
2019,03,29,13,30,16.00
2019,03,29,13,31,15.90
2019,03,29,13,32,15.90
2019,03,29,13,33,16.00
2019,03,29,13,34,16.00
2019,03,29,13,35,15.90
2019,03,29,13,36,15.90
2019,03,29,13,37,16.00
2019,03,29,13,38,16.00
2019,03,29,13,39,16.00
2019,03,29,13,40,16.00
2019,03,29,13,41,15.90
2019,03,29,13,42,16.00
2019,03,29,13,43,16.00
2019,03,29,13,44,16.00
2019,03,29,13,45,16.10
2019,03,29,13,46,16.10
2019,03,29,13,47,16.20
2019,03,29,13,48,16.20
2019,03,29,13,49,16.30
2019,03,29,13,50,16.30
2019,03,29,13,51,16.30
2019,03,29,13,52,16.30
2019,03,29,13,53,16.40
2019,03,29,13,54,16.40
2019,03,29,13,55,16.40
2019,03,29,13,56,16.30
2019,03,29,13,57,16.30
2019,03,29,13,58,16.30
2019,03,29,13,59,16.40
2019,03,29,14,00,16.40
2019,03,29,14,01,16.50
2019,03,29,14,02,16.50
2019,03,29,14,03,16.50
2019,03,29,14,04,16.50
2019,03,29,14,05,16.40
2019,03,29,14,06,16.40
2019,03,29,14,07,16.40
2019,03,29,14,08,16.40
2019,03,29,14,09,16.40
2019,03,29,14,10,16.50
2019,03,29,14,11,16.50
2019,03,29,14,12,16.60
2019,03,29,14,13,16.70
2019,03,29,14,14,16.80
2019,03,29,14,15,16.80
2019,03,29,14,16,16.90
2019,03,29,14,17,16.90
2019,03,29,14,18,16.90
2019,03,29,14,19,17.00
2019,03,29,14,20,17.00
2019,03,29,14,21,16.90
2019,03,29,14,22,16.90
2019,03,29,14,23,16.90
2019,03,29,14,24,16.80
2019,03,29,14,25,16.80
2019,03,29,14,26,16.80
2019,03,29,14,27,16.80
2019,03,29,14,28,16.80
2019,03,29,14,29,16.80
2019,03,29,14,30,16.70
2019,03,29,14,31,16.70
2019,03,29,14,32,16.70
2019,03,29,14,33,16.70
2019,03,29,14,34,16.70
2019,03,29,14,35,16.70
2019,03,29,14,36,16.80
2019,03,29,14,37,16.80
2019,03,29,14,38,16.80
2019,03,29,14,39,16.80
2019,03,29,14,40,16.80
2019,03,29,14,41,16.80
2019,03,29,14,42,16.80
2019,03,29,14,43,16.80
2019,03,29,14,44,16.80
2019,03,29,14,45,16.80
2019,03,29,14,46,16.80
2019,03,29,14,47,16.80
2019,03,29,14,48,16.80
2019,03,29,14,49,16.80
2019,03,29,14,50,16.70
2019,03,29,14,51,16.70
2019,03,29,14,52,16.70
2019,03,29,14,53,16.70
2019,03,29,14,54,16.70
2019,03,29,14,55,16.70
2019,03,29,14,56,16.70
2019,03,29,14,57,16.70
2019,03,29,14,58,16.70
2019,03,29,14,59,16.70
2019,03,29,15,00,16.80
2019,03,29,15,01,16.80
2019,03,29,15,02,16.80
2019,03,29,15,03,16.80
2019,03,29,15,04,16.70
2019,03,29,15,05,16.70
2019,03,29,15,06,16.80
2019,03,29,15,07,16.80
2019,03,29,15,08,16.80
2019,03,29,15,09,16.90
2019,03,29,15,10,17.00
2019,03,29,15,11,17.00
2019,03,29,15,12,17.00
2019,03,29,15,13,17.00
2019,03,29,15,14,17.00
2019,03,29,15,15,17.00
2019,03,29,15,16,17.00
2019,03,29,15,17,17.10
2019,03,29,15,18,17.10
2019,03,29,15,19,17.10
2019,03,29,15,20,17.10
2019,03,29,15,21,17.10
2019,03,29,15,22,17.20
2019,03,29,15,23,17.30
2019,03,29,15,24,17.30
2019,03,29,15,25,17.30
2019,03,29,15,26,17.20
2019,03,29,15,27,17.20
2019,03,29,15,28,17.20
2019,03,29,15,29,17.20
2019,03,29,15,30,17.10
2019,03,29,15,31,17.10
2019,03,29,15,32,17.00
2019,03,29,15,33,17.00
2019,03,29,15,34,17.10
2019,03,29,15,35,17.10
2019,03,29,15,36,17.10
2019,03,29,15,37,17.20
2019,03,29,15,38,17.20
2019,03,29,15,39,17.10
2019,03,29,15,40,17.10
2019,03,29,15,41,17.10
2019,03,29,15,42,17.10
2019,03,29,15,43,17.10
2019,03,29,15,44,17.10
2019,03,29,15,45,17.20
2019,03,29,15,46,17.20
2019,03,29,15,47,17.20
2019,03,29,15,48,17.20
2019,03,29,15,49,17.20
2019,03,29,15,50,17.20
2019,03,29,15,51,17.30
2019,03,29,15,52,17.30
2019,03,29,15,53,17.30
2019,03,29,15,54,17.30
2019,03,29,15,55,17.30
2019,03,29,15,56,17.30
2019,03,29,15,57,17.30
2019,03,29,15,58,17.30
2019,03,29,15,59,17.30
2019,03,29,16,00,17.30
2019,03,29,16,01,17.30
2019,03,29,16,02,17.30
2019,03,29,16,03,17.30
2019,03,29,16,04,17.40
2019,03,29,16,05,17.40
2019,03,29,16,06,17.40
2019,03,29,16,07,17.40
2019,03,29,16,08,17.40
2019,03,29,16,09,17.40
2019,03,29,16,10,17.40
2019,03,29,16,11,17.50
2019,03,29,16,12,17.40
2019,03,29,16,13,17.30
2019,03,29,16,14,17.30
2019,03,29,16,15,17.20
2019,03,29,16,16,17.20
2019,03,29,16,17,17.10
2019,03,29,16,18,17.10
2019,03,29,16,19,17.00
2019,03,29,16,20,17.00
2019,03,29,16,21,17.00
2019,03,29,16,22,16.90
2019,03,29,16,23,17.00
2019,03,29,16,24,17.00
2019,03,29,16,25,17.00
2019,03,29,16,26,17.00
2019,03,29,16,27,17.00
2019,03,29,16,28,17.10
2019,03,29,16,29,17.10
2019,03,29,16,30,17.10
2019,03,29,16,31,17.20
2019,03,29,16,32,17.20
2019,03,29,16,33,17.30
2019,03,29,16,34,17.30
2019,03,29,16,35,17.30
2019,03,29,16,36,17.30
2019,03,29,16,37,17.30
2019,03,29,16,38,17.30
2019,03,29,16,39,17.30
2019,03,29,16,40,17.30
2019,03,29,16,41,17.30
2019,03,29,16,42,17.30
2019,03,29,16,43,17.30
2019,03,29,16,44,17.40
2019,03,29,16,45,17.40
2019,03,29,16,46,17.40
2019,03,29,16,47,17.40
2019,03,29,16,48,17.40
2019,03,29,16,49,17.40
2019,03,29,16,50,17.40
2019,03,29,16,51,17.30
2019,03,29,16,52,17.30
2019,03,29,16,53,17.40
2019,03,29,16,54,17.40
2019,03,29,16,55,17.40
2019,03,29,16,56,17.40
2019,03,29,16,57,17.50
2019,03,29,16,58,17.50
2019,03,29,16,59,17.50
2019,03,29,17,00,17.50
2019,03,29,17,01,17.50
2019,03,29,17,02,17.50
2019,03,29,17,03,17.40
2019,03,29,17,04,17.40
2019,03,29,17,05,17.30
2019,03,29,17,06,17.30
2019,03,29,17,07,17.30
2019,03,29,17,08,17.30
2019,03,29,17,09,17.30
2019,03,29,17,10,17.30
2019,03,29,17,11,17.30
2019,03,29,17,12,17.30
2019,03,29,17,13,17.30
2019,03,29,17,14,17.30
2019,03,29,17,15,17.40
2019,03,29,17,16,17.40
2019,03,29,17,17,17.40
2019,03,29,17,18,17.40
2019,03,29,17,19,17.50
2019,03,29,17,20,17.50
2019,03,29,17,21,17.50
2019,03,29,17,22,17.50
2019,03,29,17,23,17.50
2019,03,29,17,24,17.60
2019,03,29,17,25,17.60
2019,03,29,17,26,17.60
2019,03,29,17,27,17.60
2019,03,29,17,28,17.70
2019,03,29,17,29,17.70
2019,03,29,17,30,17.70
2019,03,29,17,31,17.70
2019,03,29,17,32,17.80
2019,03,29,17,33,17.80
2019,03,29,17,34,17.80
2019,03,29,17,35,17.70
2019,03,29,17,36,17.70
2019,03,29,17,37,17.70
2019,03,29,17,38,17.60
2019,03,29,17,39,17.60
2019,03,29,17,40,17.60
2019,03,29,17,41,17.50
2019,03,29,17,42,17.50
2019,03,29,17,43,17.40